Hayward, WI

7:01 AM CDT on May 20, 2018 (GMT -0500)
Sawyer County

Weather History for KHYR - February, 2015

Change the Weather History Date:

Monday, February 23, 2015

  Actual Average Record
Temperature  
Mean Temperature -6 °F -  
Max Temperature 16 °F 42 °F 43 °F (2002)
Min Temperature -23 °F 9 °F -23 °F (2015)
Degree Days  
Heating Degree Days 70    
Moisture  
Dew Point -15 °F    
Average Humidity 61    
Maximum Humidity 78    
Minimum Humidity 45    
Precipitation  
Precipitation 0.00 in - - ()
Sea Level Pressure  
Sea Level Pressure 30.42 in    
Wind  
Wind Speed 8 mph (SSW)    
Max Wind Speed 22 mph    
Max Gust Speed 31 mph    
Visibility 10 miles    
Events      
Averages and records for this station are not official NWS values.
T = Trace of Precipitation, MM = Missing Value Source: NWS Daily Summary

Daily Weather History Graph

Daily Weather History Graph

Search for Another Location

Airport or City:

Astronomy

Feb. 23, 2015 Rise Set
Actual Time 6:55 AM CST 5:43 PM CST
Civil Twilight 6:25 AM CST 6:13 PM CST
Nautical Twilight 5:50 AM CST 6:48 PM CST
Astronomical Twilight 5:16 AM CST 7:23 PM CST
Moon 9:30 AM CST (2/23) 11:51 PM CST (2/23)
Length of Visible Light 11h 48m
Length of Day
10h 47m
Waxing Crescent, 29% of the Moon is Illuminated
Feb 23
Waxing Crescent
Feb 25
First Quarter
Mar 5
Full
Mar 13
Last Quarter
Mar 20
New

Hourly Weather History & Observations

Time (CST) Temp. Windchill Dew Point Humidity Pressure Visibility Wind Dir Wind Speed Gust Speed Precip Events Conditions
12:53 AM -22.0 °F - -29.0 °F 70% 30.78 in 10.0 mi Calm Calm - N/A   Clear
1:53 AM -16.1 °F -26.2 °F -25.1 °F 64% 30.77 in 10.0 mi West 3.5 mph - N/A   Clear
2:53 AM -22.0 °F -35.6 °F -29.0 °F 70% 30.77 in 10.0 mi South 4.6 mph - N/A   Clear
3:53 AM -23.1 °F -38.9 °F -27.9 °F 78% 30.76 in 10.0 mi SSW 5.8 mph - N/A   Clear
4:53 AM -23.1 °F - -29.0 °F 74% 30.75 in 10.0 mi Calm Calm - N/A   Clear
5:53 AM -20.9 °F - -27.0 °F 73% 30.74 in 10.0 mi Calm Calm - N/A   Clear
6:53 AM -23.1 °F -38.9 °F -29.0 °F 74% 30.71 in 10.0 mi SSW 5.8 mph - N/A   Clear
7:53 AM -20.0 °F -35.3 °F -25.1 °F 78% 30.69 in 8.0 mi South 5.8 mph - N/A   Clear
8:53 AM -13.0 °F -30.0 °F -20.9 °F 68% 30.67 in 10.0 mi SW 8.1 mph - N/A   Clear
9:53 AM -7.1 °F -23.9 °F -17.0 °F 62% 30.63 in 10.0 mi SW 9.2 mph - N/A   Clear
10:53 AM -2.0 °F -20.5 °F -16.1 °F 51% 30.60 in 10.0 mi SW 12.7 mph - N/A   Clear
11:53 AM 1.0 °F -17.3 °F -15.0 °F 47% 30.56 in 10.0 mi SSW 13.8 mph - N/A   Clear
12:53 PM 3.9 °F -13.0 °F -13.0 °F 46% 30.49 in 10.0 mi WSW 12.7 mph 23.0 mph N/A   Clear
1:53 PM 6.1 °F -12.8 °F -11.0 °F 45% 30.40 in 10.0 mi SSW 17.3 mph 25.3 mph N/A   Clear
2:53 PM 6.1 °F -14.8 °F -9.0 °F 50% 30.35 in 10.0 mi SSW 21.9 mph 26.5 mph N/A   Clear
3:53 PM 6.1 °F -13.8 °F -9.0 °F 50% 30.29 in 10.0 mi SSW 19.6 mph 27.6 mph N/A   Partly Cloudy
4:53 PM 6.1 °F -12.2 °F -7.1 °F 55% 30.25 in 10.0 mi SSW 16.1 mph - N/A   Clear
5:53 PM 7.0 °F -12.1 °F -6.0 °F 55% 30.18 in 10.0 mi SSW 18.4 mph 27.6 mph N/A   Partly Cloudy
6:53 PM 7.0 °F -11.0 °F -5.1 °F 58% 30.12 in 10.0 mi South 16.1 mph - N/A   Clear
7:53 PM 8.1 °F -10.7 °F -2.0 °F 64% 30.06 in 10.0 mi South 18.4 mph 26.5 mph N/A   Mostly Cloudy
8:53 PM 10.0 °F -7.1 °F -0.9 °F 61% 30.00 in 9.0 mi SSW 16.1 mph 27.6 mph N/A   Overcast
9:53 PM 10.9 °F -7.5 °F -0.0 °F 61% 29.93 in 9.0 mi South 19.6 mph 31.1 mph N/A   Overcast
10:53 PM 12.9 °F -4.9 °F 1.9 °F 62% 29.85 in 10.0 mi South 19.6 mph 27.6 mph N/A   Overcast
11:53 PM 16.0 °F 1.7 °F 3.0 °F 57% 29.78 in 10.0 mi SSW 13.8 mph - N/A   Overcast